Regional Weather Roundup
Issued by NWS

Home | Current Version | Previous Version | Graphics & Text | Print | Product List | Glossary On
Versions: 1 2 3 4 5 6 7 8 9 10 11 12 13 14 15 16 17 18 19 20 21 22 23 24 25 26 27 28 29 30 31 32 33 34 35 36 37 38 39 40 41 42 43 44 45 46 47 48 49 50
784
ASUS43 KMKX 211000
RWRWI

WISCONSIN REGIONAL WEATHER ROUNDUP
NATIONAL WEATHER SERVICE MILWAUKEE/SULLIVAN WI
500 AM CDT MON MAY 21 2018

NOTE: "FAIR" INDICATES FEW OR NO CLOUDS BELOW 12,000 FEET WITH NO
SIGNIFICANT WEATHER AND/OR OBSTRUCTIONS TO VISIBILITY.

WIZ001-002-006>008-014>016-023>028-211100-
NORTHWEST WISCONSIN

CITY           SKY/WX    TMP DP  RH WIND       PRES   REMARKS
SUPERIOR ARPT  FAIR      33  33  99 CALM      30.18R
ASHLAND        FAIR      37  33  85 SW5       30.19R WCI  33
HAYWARD        FAIR      39  36  89 CALM      30.19S
SIREN            N/A     39  35  84 CALM      30.17S
CUMBERLAND     FAIR      41  36  81 E6        30.18S
RICE LAKE      FAIR      43  41  93 CALM      30.19F
CHETEK         FAIR      43  41  93 E6        30.18F
LADYSMITH      FAIR      42  37  83 CALM      30.21S
EAU CLAIRE     NOT AVBL
MENOMONIE      CLOUDY    55  46  71 E9        30.16F
NEW RICHMOND   CLOUDY    55  43  65 E3        30.15F
OSCEOLA        CLOUDY    51  42  71 CALM      30.18S
$$

WIZ003>005-009-010-017-018-211100-
NORTH CENTRAL WISCONSIN

CITY           SKY/WX    TMP DP  RH WIND       PRES   REMARKS
MANITOWISH WTR FAIR      33  33 100 CALM      30.22S
ARBOR VITAE    FAIR      39  37  91 CALM      30.22R
WOODRUFF       FAIR      39  37  91 CALM      30.22R
RHINELANDER    FAIR      37  35  92 CALM      30.23R
EAGLE RIVER    FAIR      34  34 100 CALM      30.22R
LAND O LAKES   FAIR      32  32 100 CALM      30.24R
PHILLIPS       FAIR      35  35  99 CALM      30.21R
TOMAHAWK       FAIR      32  30  94 CALM      30.23R
MEDFORD        FAIR      37  34  86 E8        30.19S WCI  31
MERRILL        FAIR      34  33  96 CALM      30.22S
$$

WIZ029-030-035-036-043>047-211100-
CENTRAL WISCONSIN

CITY           SKY/WX    TMP DP  RH WIND       PRES   REMARKS
WAUSAU         FAIR      40  34  79 CALM      30.18F
MOSINEE        FAIR      39  32  75 NE5       30.20F
MARSHFIELD     FAIR      44  36  73 E7        30.17F
STEVENS POINT  NOT AVBL
WAUPACA        FAIR      39  37  91 CALM      30.20F
WAUTOMA        FAIR      44  38  79 CALM      30.18F
WISC RAPIDS    MOCLDY    47  32  56 NE8       30.18F
CAMP DOUGLAS   NOT AVBL
$$

WIZ011>013-019>022-031-037>040-048>050-211100-
NORTHEAST WISCONSIN

CITY           SKY/WX    TMP DP  RH WIND       PRES   REMARKS
ANTIGO         FAIR      35  31  87 NE3       30.21S
SHAWANO        FAIR      41  38  91 CALM      30.22R
OCONTO         FAIR      33  32  96 CALM      30.22R
STURGEON BAY   FAIR      41  31  67 CALM      30.23R
GREEN BAY      FAIR      42  35  76 N6        30.20F
MANITOWOC      FAIR      39  35  86 N5        30.20F
APPLETON       FAIR      43  27  52 N6        30.18S
CLINTONVILLE   FAIR      38  34  84 CALM      30.21S
OSHKOSH        MOCLDY    50  41  71 E5        30.17F
$$

WIZ032>034-041-042-053>061-211100-
SOUTHWEST WISCONSIN

CITY           SKY/WX    TMP DP  RH WIND       PRES   REMARKS
LA CROSSE      CLOUDY    57  50  77 CALM      30.12F
SPARTA         CLOUDY    50  48  92 CALM      30.15F
VIROQUA        MOCLDY    52  49  90 E8        30.13F
BOSCOBEL       CLOUDY    55  50  83 VRB3      30.12F
PRAIRIE DU CHI CLOUDY    55  45  69 E6        30.12S
PLATTEVILLE    CLOUDY    51  49  93 E8        30.12S
$$

WIZ056-057-062-063-064-067-068-211100-
SOUTH CENTRAL WISCONSIN

CITY           SKY/WX    TMP DP  RH WIND       PRES   REMARKS
REEDSBURG      CLOUDY    51  39  65 E6        30.15F
BARABOO/DELLS  CLOUDY    50  37  60 NE5       30.15F
LONE ROCK      NOT AVBL
MINERAL POINT  MOCLDY    52  46  82 E8        30.12F
MADISON        FAIR      50  43  77 E3        30.14S
MIDDLETON      MOCLDY    52  43  73 CALM      30.15S
WATERTOWN      MOCLDY    49  45  86 NE3       30.15R
MONROE         DRIZZLE   48  45  87 NE7       30.13S
JANESVILLE     CLOUDY    50  43  76 NE7       30.14F
$$

WIZ051-052-058>065-066-070>072-211100-
SOUTHEAST WISCONSIN

CITY           SKY/WX    TMP DP  RH WIND       PRES   REMARKS
MILWAUKEE      CLOUDY    46  40  79 NE7       30.17R
WAUKESHA       CLOUDY    45  37  76 E6        30.17S
MILWAUKEE/TIMM CLOUDY    45  37  76 NE3       30.18S
RACINE         CLOUDY    45  41  86 NE5       30.18S
BURLINGTON     CLOUDY    47  43  87 E5        30.16S
KENOSHA        CLOUDY    47  43  86 NE6       30.16S
FOND DU LAC    FAIR      47  37  68 NE5       30.17S
SHEBOYGAN      FAIR      42  37  82 NE7       30.18S
WEST BEND      MOCLDY    43  39  87 CALM      30.18R
JUNEAU         CLOUDY    47  40  74 CALM      30.17S
$$

LSZ147-162-211100-
LAKE SUPERIOR

STATION/POSITION TIME  TEMP    WIND        PRES    WAVE
                       AIR SEA DIR/SP/G            HT/PER
                 (UTC) (F)     (DEG/KT/KT) (MB)    (FT/S)
W MID LAKE BUOY  0850   42 35   CALM  /  2 1022.2S   0
DEVILS ISLAND    0900   52     150/  3/  4 1022.1R
SAXON HARBOR     0940   39     140/  1/  2 1021.3S
$$

LMZ867-665-643>646-211100-
LAKE MICHIGAN

STATION/POSITION TIME  TEMP    WIND        PRES    WAVE
                       AIR SEA DIR/SP/G            HT/PER
                 (UTC) (F)     (DEG/KT/KT) (MB)    (FT/S)
NORTHPORT PIER   0940   42                 1023.4S
KEWAUNEE LAKESHO 0930   46      40/  5/  8 1022.6R
SHEBOYGAN LAKESH 0900   46      20/ 11/ 12 1022.4F
PORT WASHINGTON  0940   47      10/  3/  5 1022.7S
MILWAUKEE LAKESH 0930   45      30/  9/ 10   N/A
KENOSHA   LAKESH 0900   46                 1021.0
$$

TC  - TEMPERATURE IN CELSIUS
VSB - VISIBILITY IN STATUTE MILES
WCI - WIND CHILL INDEX
HX  - HEAT INDEX





USA.gov is the U.S. government's official web portal to all federal, state and local government web resources and services.